Thomasville, PA

6:27 PM EDT on August 28, 2016 (GMT -0400)
York

Weather History for KTHV - February, 2013

Change the Weather History Date:

Thursday, February 28, 2013

  Actual Average Record
Temperature  
Mean Temperature 38 °F -  
Max Temperature 42 °F 0 °F 63 °F (2016)
Min Temperature 35 °F - 0 °F (2015)
Degree Days  
Heating Degree Days 26    
Moisture  
Dew Point 28 °F    
Average Humidity 67    
Maximum Humidity 79    
Minimum Humidity 53    
Precipitation  
Precipitation 0.00 in - - ()
Sea Level Pressure  
Sea Level Pressure 29.66 in    
Wind  
Wind Speed 7 mph (West)    
Max Wind Speed 15 mph    
Max Gust Speed 20 mph    
Visibility 10 miles    
Events      
Averages and records for this station are not official NWS values.
T = Trace of Precipitation, MM = Missing Value Source: NWS Daily Summary

Daily Weather History Graph

Daily Weather History Graph

Search for Another Location

Airport or City:

Trip Planner

Search our weather history database for the weather conditions in past years. The results will help you decide how hot, cold, wet, or windy it might be!

Date:

Astronomy

Feb. 28, 2013 Rise Set
Actual Time 6:41 AM EST 5:58 PM EST
Civil Twilight 6:14 AM EST 6:25 PM EST
Nautical Twilight 5:43 AM EST 6:57 PM EST
Astronomical Twilight 5:12 AM EST 7:28 PM EST
Moon 9:23 PM EST 7:50 AM EST
Length of Visible Light 12h 11m
Length of Day
11h 16m
Waning Gibbous, 91% of the Moon is Illuminated
Feb 28
Waning Gibbous
Mar 4
Last Quarter
Mar 11
New
Mar 19
First Quarter
Mar 27
Full

Hourly Weather History & Observations

Time (EST) Temp. Windchill Dew Point Humidity Pressure Visibility Wind Dir Wind Speed Gust Speed Precip Events Conditions
1:53 AM 39.9 °F 35.1 °F 32.0 °F 73% 29.64 in 10.0 mi WNW 6.9 mph - N/A   Overcast
2:53 AM 39.0 °F 35.7 °F 33.1 °F 79% 29.63 in 10.0 mi West 4.6 mph - N/A   Overcast
4:53 AM 37.9 °F 33.5 °F 30.9 °F 76% 29.64 in 10.0 mi West 5.8 mph - N/A   Overcast
5:53 AM 37.0 °F 33.3 °F 28.9 °F 73% 29.65 in 10.0 mi West 4.6 mph - N/A   Mostly Cloudy
6:53 AM 35.1 °F 30.1 °F 28.0 °F 76% 29.65 in 10.0 mi West 5.8 mph - N/A   Clear
7:53 AM 36.0 °F 32.1 °F 28.9 °F 76% 29.67 in 10.0 mi West 4.6 mph - N/A   Clear
8:53 AM 39.9 °F 35.1 °F 28.0 °F 63% 29.66 in 10.0 mi West 6.9 mph - N/A   Clear
9:53 AM 42.1 °F 36.6 °F 26.1 °F 53% 29.66 in 10.0 mi West 9.2 mph 17.3 mph N/A   Scattered Clouds
10:53 AM 42.1 °F 35.7 °F 26.1 °F 53% 29.65 in 10.0 mi WNW 11.5 mph - N/A   Overcast
11:53 AM 42.1 °F 36.1 °F 26.1 °F 53% 29.65 in 10.0 mi West 10.4 mph - N/A   Overcast
12:53 PM 42.1 °F 34.5 °F 26.1 °F 53% 29.64 in 10.0 mi WNW 15.0 mph 19.6 mph N/A   Overcast
1:53 PM 41.0 °F 34.3 °F 27.0 °F 57% 29.63 in 10.0 mi West 11.5 mph - N/A   Overcast
2:53 PM 41.0 °F 35.2 °F 30.0 °F 65% 29.63 in 10.0 mi NW 9.2 mph - 0.00 in   Overcast
4:53 PM 41.0 °F 34.3 °F 26.1 °F 55% 29.64 in 10.0 mi West 11.5 mph 17.3 mph N/A   Overcast
5:53 PM 39.0 °F 31.0 °F 28.0 °F 65% 29.66 in 10.0 mi West 13.8 mph 18.4 mph N/A   Overcast
6:53 PM 37.0 °F - 28.9 °F 73% 29.69 in 10.0 mi Calm Calm - 0.00 in   Overcast
7:53 PM 37.0 °F 33.3 °F 28.9 °F 73% 29.70 in 10.0 mi West 4.6 mph - N/A   Overcast
8:53 PM 37.0 °F 32.4 °F 28.0 °F 70% 29.71 in 10.0 mi West 5.8 mph - N/A   Overcast
9:53 PM 37.0 °F 32.4 °F 28.0 °F 70% 29.71 in 10.0 mi West 5.8 mph - N/A   Overcast
10:53 PM 37.0 °F 33.3 °F 28.0 °F 70% 29.71 in 10.0 mi West 4.6 mph - N/A   Overcast
11:53 PM 37.0 °F 34.5 °F 28.9 °F 73% 29.70 in 10.0 mi West 3.5 mph - N/A   Overcast